Weather History for Orangeburg, SC

Change the Weather History Date:

Sunday, December 16, 2012

  Actual Average Record
Temperature  
Mean Temperature 60 °F 48 °F  
Max Temperature 69 °F 58 °F 77 °F (1971)
Min Temperature 51 °F 37 °F 18 °F (1962)
Degree Days  
Heating Degree Days 5 18  
Month to date heating degree days 122 253  
Since 1 July heating degree days 572 622  
Cooling Degree Days 0 0  
Month to date cooling degree days 2 0  
Year to date cooling degree days 2322 2102  
Growing Degree Days 10 (Base 50)    
Moisture  
Dew Point 54 °F    
Average Humidity 88    
Maximum Humidity 93    
Minimum Humidity 68    
Precipitation  
Precipitation T in 0.12 in 1.55 in (1970)
Month to date precipitation 0.81 1.79  
Year to date precipitation 39.11 45.20  
Sea Level Pressure  
Sea Level Pressure 30.03 in    
Wind  
Wind Speed 2 mph (SSW)    
Max Wind Speed 9 mph    
Max Gust Speed 13 mph    
Visibility 6 miles    
Events Fog , Rain    
T = Trace of Precipitation, MM = Missing Value Source: NWS Daily Summary

Daily Weather History Graph

Daily Weather History Graph

Search for Another Location

Airport:

Trip Planner

Search our weather history database for the weather conditions in past years. The results will help you decide how hot, cold, wet, or windy it might be!

Date:

Astronomy

Dec. 16, 2012 Rise Set
Actual Time 7:21 AM EST 5:17 PM EST
Civil Twilight 6:53 AM EST 5:45 PM EST
Nautical Twilight 6:22 AM EST 6:16 PM EST
Astronomical Twilight 5:52 AM EST 6:46 PM EST
Moon 10:01 AM EST 9:20 PM EST
Length of Visible Light 10h 51m
Length of Day
9h 56m
Waxing Crescent, 16% of the Moon is Illuminated
Dec 16
Waxing Crescent
Dec 20
First Quarter
Dec 28
Full
Jan 4
Last Quarter
Jan 11
New

Hourly Weather History & Observations

Time (EST) Temp. Dew Point Humidity Pressure Visibility Wind Dir Wind Speed Gust Speed Precip Events Conditions
12:27 AM 51.8 °F 48.2 °F 88% 30.10 in 10.0 mi Calm Calm - N/A   Overcast
12:53 AM 52.0 °F 48.0 °F 86% 30.10 in 8.0 mi Calm Calm - N/A   Overcast
1:53 AM 53.1 °F 48.9 °F 86% 30.09 in 8.0 mi South 3.5 mph - N/A   Overcast
2:35 AM 53.6 °F 51.8 °F 94% 30.08 in 4.0 mi West 3.5 mph - N/A   Overcast
2:53 AM 53.1 °F 50.0 °F 89% 30.08 in 5.0 mi Calm Calm - N/A   Overcast
3:53 AM 53.1 °F 51.1 °F 93% 30.06 in 4.0 mi Calm Calm - N/A   Overcast
4:49 AM 53.6 °F 51.8 °F 94% 30.06 in 2.0 mi Calm Calm - N/A   Overcast
4:53 AM 53.1 °F 51.1 °F 93% 30.07 in 2.0 mi Calm Calm - N/A   Overcast
4:57 AM 53.6 °F 51.8 °F 94% 30.07 in 1.5 mi Calm Calm - N/A   Overcast
5:12 AM 53.6 °F 51.8 °F 94% 30.06 in 2.0 mi Calm Calm - N/A   Overcast
5:53 AM 54.0 °F 51.1 °F 90% 30.06 in 2.0 mi Calm Calm - N/A   Overcast
6:08 AM 53.6 °F 51.8 °F 94% 30.07 in 1.8 mi Calm Calm - N/A   Overcast
6:18 AM 53.6 °F 51.8 °F 94% 30.07 in 2.5 mi Calm Calm - N/A   Overcast
6:28 AM 53.6 °F 51.8 °F 94% 30.06 in 3.0 mi Calm Calm - N/A   Overcast
6:53 AM 54.0 °F 52.0 °F 93% 30.06 in 2.0 mi Calm Calm - N/A   Overcast
6:55 AM 53.6 °F 51.8 °F 94% 30.07 in 1.5 mi Calm Calm - N/A   Overcast
7:08 AM 53.6 °F 51.8 °F 94% 30.07 in 0.5 mi Calm Calm - N/A Fog Fog
7:53 AM 54.0 °F 52.0 °F 93% 30.08 in 0.2 mi Calm Calm - N/A Fog Fog
8:05 AM 53.6 °F 51.8 °F 94% 30.08 in 0.8 mi Calm Calm - N/A   Overcast
8:38 AM 55.4 °F 53.6 °F 94% 30.08 in 2.0 mi Calm Calm - N/A   Overcast
8:53 AM 55.9 °F 53.1 °F 90% 30.08 in 3.0 mi Calm Calm - N/A   Mostly Cloudy
9:53 AM 60.1 °F 55.0 °F 83% 30.07 in 9.0 mi South 3.5 mph - N/A   Scattered Clouds
10:22 AM 60.8 °F 55.4 °F 82% 30.07 in 10.0 mi SW 3.5 mph - N/A   Scattered Clouds
10:53 AM 62.1 °F 55.9 °F 80% 30.06 in 10.0 mi SW 5.8 mph - N/A   Clear
11:53 AM 64.9 °F 57.0 °F 75% 30.04 in 10.0 mi SW 5.8 mph - N/A   Partly Cloudy
12:53 PM 66.9 °F 57.9 °F 73% 30.01 in 10.0 mi WSW 5.8 mph - N/A   Scattered Clouds
1:53 PM 68.0 °F 57.9 °F 70% 29.98 in 10.0 mi Calm Calm - 0.00 in   Overcast
2:53 PM 68.0 °F 59.0 °F 73% 29.96 in 10.0 mi SW 4.6 mph - 0.00 in Rain Light Rain
3:53 PM 66.0 °F 59.0 °F 78% 29.97 in 10.0 mi North 3.5 mph - 0.00 in   Overcast
4:53 PM 64.9 °F 57.9 °F 78% 29.96 in 10.0 mi NNE 3.5 mph - N/A   Mostly Cloudy
5:53 PM 63.0 °F 59.0 °F 87% 29.95 in 10.0 mi Calm Calm - 0.00 in Rain Light Rain
6:53 PM 62.1 °F 57.9 °F 86% 29.95 in 9.0 mi East 3.5 mph - 0.00 in   Mostly Cloudy
7:53 PM 62.1 °F 57.9 °F 86% 29.94 in 10.0 mi Calm Calm - N/A   Overcast
8:53 PM 61.0 °F 57.9 °F 90% 29.91 in 9.0 mi Calm Calm - N/A   Mostly Cloudy
9:53 PM 62.1 °F 57.9 °F 86% 29.90 in 8.0 mi SE 5.8 mph - 0.00 in Rain Light Rain
10:53 PM 63.0 °F 60.1 °F 90% 29.89 in 10.0 mi South 5.8 mph - 0.00 in   Overcast
11:53 PM 63.0 °F 60.1 °F 90% 29.90 in 10.0 mi SSW 3.5 mph - N/A   Overcast